Probability
0 0 0 0 0 0 0 0 0 0 0 0 0 0 0 0 0 0 0 0 0 0 0 0 0 0 0 0 0 0 0 0 0 0 0 0 0 0 0 0 0 0 0
0 0 0 0 0 0 0 0 0 0 0 0 0 0 0 0 0 0 0 0 0 0 0 0 0 0 0 0 0 0 0 0 0 0 0 0 0 0 0 0 0 0 0
0 0 0 0 0 0 0 0 0 0 0 0 0 0 0 0 0 0 0 0 0 0 0 0 0 0 0 0 0 0 0 0 0 0 0 0 0 0 0 0 0 0 0
0 0 0 0 0 0 0 0 0 0 0 0 0 0 0 0 0 0 0 0 0 0 0 0 0 0 0 0 0 0 0 0 0 0 0 0 0 0 0 0 0 0 0
0 0 0 0 0 0 0 0 0 0 0 0 0 0 0 0 0 0 0 0 0 0 0 0 0 0 0 0 0 0 0 0 0 0 0 0 0 0 0 0 0 0 0
0 0 0 0 0 0 0 0 0 0 0 0 0 0 0 0 0 0 0 0 0 0 0 0 0 0 0 0 0 0 0 0 0 0 0 0 0 0 0 0 0 0 0
0 0 0 0 0 0 0 0 0 0 0 0 0 0 0 0 0 0 0 0 0 0 0 0 0 0 0 0 0 0 0 0 0 0 0 0 0 0 0 0 0 0 0
0 0 0 0 0 0 0 0 0 0 0 0 0 0 0 0 0 0 0 0 0 0 0 0 0 0 0 0 0 0 0 0 0 0 0 0 0 0 0 0 0 0 0
0 0 0 0 0 0 0 0 0 0 0 0 0 0 0 0 0 0 0 0 0 0 0 0 0 0 0 0 0 0 0 0 0 0 0 0 0 0 0 0 0 0 0
0 0 0 0 0 0 0 0 0 0 0 0 0 0 0 0 0 0 0 0 0 0 0 0 0 0 0 0 0 0 0 0 0 0 0 0 0 0 0 0 0 0 0
0 0 0 0 0 0 0 0 0 0 0 0 0 0 0 0 0 0 0 0 0 0 0 0 0 0 0 0 0 0 0 0 0 0 0 0 0 0 0 0 0 0 0
0 0 0 0 0 0 0 0 0 0 0 0 0 0 0 0 0 0 0 0 0 0 0 0 0 0 0 0 0 0 0 0 0 0 0 0 0 0 0 0 0 0 0
0 0 0 0 0 0 0 0 0 0 0 0 0 0 0 0 0 0 0 0 0 0 0 0 0 0 0 0 0 0 0 0 0 0 0 0 0 0 0 0 0 0 0
0 0 0 0 0 0 0 0 0 0 0 0 0 0 0 0 0 0 0 0 0 0 0 0 0 0 0 0 0 0 0 0 0 0 0 0 0 0 0 0 0 0 0
0 0 0 0 0 0 0 0 0 0 0 0 0 0 0 0 0 0 0 0 0 0 0 0 0 0 0 0 0 0 0 0 0 0 0 0 0 0 0 0 0 0 0
0 0 0 0 0 0 0 0 0 0 0 0 0 0 0 0 0 0 0 0 0 0 0 0 0 0 0 0 0 0 0 0 0 0 0 0 0 0 0 0 0 0 0
0 0 0 0 0 0 0 0 0 0 0 0 0 0 0 0 0 0 0 0 0 0 0 0 0 0 0 0 0 0 0 0 0 0 0 0 0 0 0 0 0 0 0
0 0 0 0 0 0 0 0 0 0 0 0 0 0 0 0 0 0 0 0 0 0 0 0 0 0 0 0 0 0 0 0 0 0 0 0 0 0 0 0 0 0 0
0 0 0 0 0 0 0 0 0 0 0 0 0 0 0 0 0 0 0 0 0 0 0 0 0 0 0 0 0 0 0 0 0 0 0 0 0 0 0 0 0 0 0
0 0 0 0 0 0 0 0 0 0 0 0 0 0 0 0 0 0 0 0 0 0 0 0 0 0 0 0 0 0 0 0 0 0 0 0 0 0 0 0 0 0 0
0 0 0 0 0 0 0 0 0 0 0 0 0 0 0 0 0 0 0 0 0 0 0 0 0 0 0 0 0 0 0 0 0 0 0 0 0 0 0 0 0 0 0
0 0 0 0 0 0 0 0 0 0 0 0 0 0 0 0 0 0 0 0 0 0 0 0 0 0 0 0 0 0 0 0 0 0 0 0 0 0 0 0 0 0 0
0 0 0 0 0 0 0 0 0 0 0 0 0 0 0 0 0 0 0 0 0 0 0 0 0 0 0 0 0 0 0 0 0 0 0 0 0 0 0 0 0 0 0
0 0 0 0 0 0 0 0 0 0 0 0 0 0 0 0 0 0 0 0 0 0 0 0 0 0 0 0 0 0 0 0 0 0 0 0 0 0 0 0 0 0 0
0 0 0 0 0 0 0 0 0 0 0 0 0 0 0 0 0 0 0 0 0 0 0 0 0 0 0 0 0 0 0 0 0 0 0 0 0 0 0 0 0 0 0
0 0 0 0 0 0 0 0 0 0 0 0 0 0 0 0 0 0 0 0 0 0 0 0 0 0 0 0 0 0 0 0 0 0 0 0 0 0 0 0 0 0 0
Wind_Speed
9 9 9 9 9 8 7 7 7 7 7 7 6 6 6 6 6 6 6 6 7 6 6 6 7 5 4 4 4 4 5 5 5 3 3 3 4 4 3 4 3 4 3
9 9 9 9 9 8 8 8 8 7 7 7 6 6 6 6 6 6 6 6 7 7 7 7 7 5 6 5 4 5 5 5 5 5 3 4 5 4 4 4 3 3 3
9 9 9 9 9 9 9 8 8 8 8 7 7 6 6 6 6 6 6 7 7 7 7 8 7 7 7 6 6 6 5 4 4 5 4 3 3 3 4 3 4 3 3
9 9 10 10 10 10 9 9 8 8 8 7 7 7 6 6 6 6 6 7 7 7 7 8 8 7 7 7 6 7 5 5 5 5 4 3 3 3 4 3 3 3 3
9 10 10 10 10 9 9 9 8 8 8 8 7 7 7 6 6 6 7 7 7 7 7 7 7 7 8 8 6 6 6 5 5 5 4 4 4 4 5 3 4 3 3
10 10 10 10 10 9 9 9 9 8 8 8 7 7 7 6 8 10 8 7 7 8 7 7 7 7 8 9 10 10 9 7 7 6 5 6 6 5 4 4 4 4 3
10 10 10 10 10 10 9 9 9 9 9 9 8 8 8 8 9 10 10 7 7 7 7 7 6 6 7 7 7 9 9 10 10 8 7 7 7 6 5 5 6 5 4
10 10 10 10 10 10 10 9 9 8 8 8 8 8 8 8 9 10 11 8 7 7 7 7 7 7 7 6 6 6 7 7 8 7 7 7 6 5 6 5 4 4 3
10 11 11 10 11 10 10 10 9 9 9 8 8 8 8 9 10 10 10 7 6 7 7 7 7 7 8 7 6 6 6 5 5 6 6 5 5 5 5 4 4 4 3
11 11 11 10 11 10 10 10 9 8 9 8 8 8 8 8 10 10 9 6 6 5 5 5 7 7 7 7 6 6 7 5 4 3 4 4 5 5 7 7 6 5 3
12 11 11 10 10 10 10 9 9 8 8 8 8 7 7 8 9 9 10 6 5 5 4 4 4 7 7 7 7 6 6 5 4 4 3 3 3 4 4 4 5 5 5
12 11 10 10 9 8 9 9 8 8 8 7 7 7 6 7 8 8 10 9 7 5 5 4 4 6 7 7 6 5 5 5 4 4 4 4 4 4 3 3 3 3 3
12 11 10 10 9 9 8 8 8 7 6 6 6 6 6 6 6 9 10 10 9 6 4 6 6 6 6 5 5 5 4 3 3 4 4 4 3 3 3 2 2 1 1
12 11 10 10 9 8 7 6 6 6 6 6 6 6 6 6 5 5 5 5 5 5 3 3 4 4 4 4 4 3 2 3 3 3 3 3 2 3 3 2 2 2 2
11 10 10 9 9 8 7 6 7 7 7 8 7 6 6 6 7 10 7 4 4 3 3 2 1 1 2 2 2 2 1 1 2 2 2 2 3 3 2 2 2 2 2
10 9 8 8 7 7 7 7 9 9 11 12 11 10 8 9 11 10 9 8 7 4 2 2 2 2 2 2 2 2 2 2 2 2 2 2 3 3 2 2 2 2 3
10 9 8 8 7 7 7 8 8 8 10 11 11 11 10 10 10 9 8 7 5 3 2 2 2 2 2 2 2 2 2 2 2 2 2 2 2 2 3 3 3 2 3
10 10 9 7 7 7 7 7 7 7 8 7 8 10 11 10 9 8 7 5 3 2 2 2 2 2 2 2 2 2 2 1 1 2 2 2 2 2 3 3 3 3 3
9 7 7 7 7 7 7 7 7 7 7 7 6 7 9 9 8 8 6 3 3 3 3 2 2 2 2 2 2 2 2 2 2 2 2 2 2 2 2 3 3 3 3
7 11 10 8 7 7 7 6 6 6 6 6 6 6 6 6 4 4 3 3 3 3 3 2 2 2 2 2 2 2 2 2 2 1 1 2 2 2 3 3 3 3 2
7 8 11 8 7 7 6 6 6 6 6 6 6 6 9 5 5 5 4 3 3 3 3 3 3 2 2 2 2 2 2 2 2 1 1 1 2 1 1 2 2 2 2
7 7 7 7 7 6 6 6 6 6 6 7 6 6 9 5 4 4 4 4 3 3 3 3 3 3 3 3 2 2 2 2 2 2 1 1 1 1 1 2 2 2 2
7 7 7 7 6 8 7 6 6 6 6 6 6 5 5 5 5 4 4 4 4 4 3 3 3 3 3 3 2 2 3 3 2 2 2 2 2 2 2 2 2 2 2
7 7 7 7 6 6 6 6 6 6 6 6 5 5 5 5 5 5 4 4 4 4 4 3 3 4 4 3 2 2 2 2 2 2 3 3 2 2 2 2 2 3 3
6 6 6 6 6 6 6 6 6 6 6 6 5 5 5 5 5 5 4 4 4 4 4 4 3 3 3 3 3 2 2 2 2 2 2 2 3 2 2 2 2 3 2
6 6 6 5 5 5 6 6 6 6 6 5 5 5 5 5 5 5 4 4 3 4 4 3 4 4 4 3 3 3 2 2 2 2 2 2 2 2 3 2 3 3 3
Wind_Direction
327 323 320 320 319 317 315 311 305 300 297 286 283 281 276 259 249 247 248 245 243 246 247 241 240 239 237 237 240 240 242 240 243 246 241 229 229 235 235 242 238 235 215
321 318 316 316 315 315 313 313 309 302 298 291 281 276 274 267 253 245 245 245 244 244 243 243 241 235 235 233 231 235 238 238 234 235 234 230 232 231 236 240 243 241 235
318 315 314 315 315 314 313 312 310 306 301 295 286 278 273 270 257 246 242 243 243 242 241 240 240 233 233 232 229 230 233 234 232 231 229 235 237 224 231 242 239 235 236
317 314 313 313 313 312 311 309 308 306 302 297 291 283 276 271 263 249 244 244 245 245 242 239 239 237 233 232 231 228 225 226 224 221 218 221 233 230 226 227 229 225 227
316 313 311 312 310 309 308 308 308 308 305 302 295 286 281 272 261 253 249 245 245 247 246 244 241 242 242 237 232 225 218 218 217 215 212 218 221 218 222 228 231 224 230
313 310 310 309 308 307 308 308 308 307 305 303 295 286 282 277 281 275 263 249 247 246 246 246 246 240 241 246 237 229 223 219 216 215 217 217 221 224 227 219 224 220 231
310 309 308 308 307 306 306 305 304 304 304 303 296 288 283 284 286 286 275 261 250 247 244 242 242 240 241 240 233 229 229 231 230 226 221 223 221 218 215 220 226 228 234
310 310 311 309 307 306 304 302 303 301 299 299 297 289 288 287 288 286 282 263 254 248 244 241 239 238 237 238 230 229 230 230 232 230 230 230 229 220 218 226 231 245 247
311 311 311 309 306 303 301 300 300 299 297 297 295 293 290 292 291 288 287 266 255 250 248 247 242 238 236 241 233 227 231 237 239 234 234 228 223 220 217 204 202 214 228
312 310 309 307 303 299 297 297 297 295 294 295 295 293 291 291 293 292 292 273 261 255 253 249 246 243 239 236 231 223 225 229 224 217 214 211 214 209 213 220 214 213 215
310 308 307 306 303 301 298 296 295 293 291 291 293 294 293 293 293 295 296 282 264 257 254 252 248 245 243 242 245 238 231 228 220 214 211 206 207 208 214 223 224 215 211
310 309 309 308 306 303 301 299 296 292 289 291 294 297 298 298 296 293 295 290 283 263 257 256 254 252 250 249 250 246 238 226 213 204 203 205 208 210 212 216 224 227 228
311 310 310 308 306 303 301 300 298 294 289 291 292 295 301 303 301 298 294 294 290 275 264 266 263 256 255 249 245 236 225 211 205 204 207 212 213 208 198 192 192 177 156
311 312 310 309 308 308 304 300 298 296 294 293 293 294 297 300 303 302 297 293 292 280 269 261 256 248 249 247 233 228 234 225 218 218 213 209 197 191 192 192 192 177 166
312 312 310 308 306 307 304 300 297 291 296 295 292 292 292 294 302 309 308 300 295 284 284 270 267 258 243 238 238 242 242 233 225 219 206 199 197 191 191 190 190 184 189
312 313 311 309 308 307 307 306 302 297 302 301 301 299 294 296 307 307 308 308 306 291 273 257 263 265 253 254 253 253 252 239 230 221 212 204 200 194 191 188 183 183 186
308 309 307 307 307 308 308 308 310 310 305 304 304 304 304 309 312 311 312 309 304 284 263 260 264 263 260 260 256 249 253 258 246 226 215 206 200 196 192 191 186 186 189
308 306 306 304 306 306 305 304 303 306 310 312 310 307 309 312 315 317 317 309 297 283 271 265 265 263 258 255 253 253 253 247 240 238 226 209 196 193 194 196 194 194 191
310 310 310 308 306 305 304 303 302 303 304 306 310 313 314 313 313 317 317 304 298 291 288 282 276 273 267 261 258 252 248 243 240 238 227 216 205 194 196 199 194 190 195
309 313 314 311 309 309 309 308 308 306 304 305 308 314 319 316 310 313 312 306 298 293 294 297 292 286 275 265 261 256 253 250 239 233 225 216 211 199 192 195 195 190 193
310 311 315 312 311 312 310 309 310 311 311 310 308 312 322 318 315 313 311 312 308 301 299 296 292 286 273 263 254 252 252 248 242 234 227 214 200 190 182 186 187 183 172
310 310 312 312 311 311 310 308 308 308 309 309 311 316 323 321 318 316 317 318 316 309 304 296 289 285 276 261 249 244 239 237 234 230 220 199 188 181 178 179 175 173 165
309 310 310 311 310 312 313 310 309 307 308 309 312 315 317 316 316 315 316 317 318 316 311 301 293 291 293 284 267 247 236 237 232 221 212 200 190 191 186 179 177 179 180
307 308 310 312 313 313 314 312 310 311 312 312 312 312 312 312 314 316 315 315 316 314 312 308 300 297 299 299 288 272 258 251 235 216 208 194 194 198 190 183 186 187 184
312 312 311 311 313 314 315 315 313 312 312 313 314 315 316 315 315 317 317 317 317 315 318 319 314 309 306 305 302 291 265 251 234 217 203 191 188 188 184 187 191 186 186
315 314 311 310 310 310 312 313 315 317 315 315 315 315 315 314 314 314 313 312 313 316 318 320 323 322 316 310 309 307 288 255 228 225 216 189 183 188 188 191 190 192 190